Weather History for KGOV - May, 2013

Change the Weather History Date:

Saturday, May 25, 2013

  Actual Average (KHTL) Record (KHTL)
Temperature  
Mean Temperature 45 °F 57 °F  
Max Temperature 64 °F 69 °F 87 °F (1933)
Min Temperature 26 °F 44 °F 23 °F (1949)
Degree Days  
Heating Degree Days 20 9  
Month to date heating degree days 309  
Since 1 July heating degree days 7970  
Cooling Degree Days 0 1  
Month to date cooling degree days 6  
Year to date cooling degree days 8  
Moisture  
Dew Point 31 °F    
Average Humidity 62    
Maximum Humidity 100    
Minimum Humidity 26    
Precipitation  
Precipitation 0.00 in 0.10 in 2.25 in (1953)
Month to date precipitation 2.23  
Year to date precipitation 9.27  
Sea Level Pressure  
Sea Level Pressure 30.36 in    
Wind  
Wind Speed 2 mph (NNE)    
Max Wind Speed 10 mph    
Max Gust Speed 17 mph    
Visibility 10 miles    
Events      
T = Trace of Precipitation, MM = Missing Value Source: NWS Daily Summary

Daily Weather History Graph

Daily Weather History Graph

Search for Another Location

Airport or City:

Trip Planner

Search our weather history database for the weather conditions in past years. The results will help you decide how hot, cold, wet, or windy it might be!

Date:

Astronomy

May. 25, 2013 Rise Set
Actual Time 6:01 AM EDT 9:11 PM EDT
Civil Twilight 5:25 AM EDT 9:46 PM EDT
Nautical Twilight 4:40 AM EDT 10:32 PM EDT
Astronomical Twilight 3:45 AM EDT 11:28 PM EDT
Moon 9:57 PM EDT (5/25) 6:28 AM EDT (5/25)
Length of Visible Light 16h 20m
Length of Day
15h 10m
Full, 100% of the Moon is Illuminated
May 25
Full
May 31
Last Quarter
Jun 8
New
Jun 16
First Quarter
Jun 23
Full

Hourly Weather History & Observations

Time (EDT) Temp. Windchill Dew Point Humidity Pressure Visibility Wind Dir Wind Speed Gust Speed Precip Events Conditions
12:15 AM 35.8 °F - 34.7 °F 96% 30.36 in 10.0 mi Calm Calm - N/A   Clear
12:35 AM 34.5 °F - 33.6 °F 97% 30.36 in 10.0 mi Calm Calm - N/A   Clear
12:54 AM 33.3 °F - 32.0 °F 95% 30.36 in 10.0 mi Calm Calm - N/A   Clear
1:15 AM 33.4 °F - 33.3 °F 99% 30.36 in 10.0 mi Calm Calm - N/A   Clear
1:35 AM 32.7 °F - 31.8 °F 96% 30.35 in 10.0 mi Calm Calm - N/A   Clear
1:54 AM 33.1 °F - 32.7 °F 99% 30.35 in 10.0 mi Calm Calm - N/A   Clear
2:15 AM 32.9 °F - 32.9 °F 100% 30.36 in 10.0 mi Calm Calm - N/A   Clear
2:35 AM 30.4 °F - 30.4 °F 100% 30.36 in 10.0 mi Calm Calm - N/A   Clear
2:54 AM 31.3 °F 27.9 °F 31.3 °F 100% 30.36 in 10.0 mi West 3.5 mph - N/A   Clear
3:15 AM 31.1 °F - 31.1 °F 100% 30.36 in 10.0 mi Calm Calm - N/A   Clear
3:35 AM 29.8 °F - 29.8 °F 100% 30.36 in 10.0 mi Calm Calm - N/A   Clear
3:54 AM 29.3 °F - 29.3 °F 100% 30.36 in 10.0 mi Calm Calm - N/A   Clear
4:15 AM 29.5 °F - 29.5 °F 100% 30.36 in 10.0 mi Calm Calm - N/A   Clear
4:34 AM 28.4 °F - 28.4 °F 100% 30.36 in 10.0 mi Calm Calm - N/A   Clear
4:55 AM 28.4 °F - 28.4 °F 100% 30.36 in 3.0 mi Calm Calm - N/A   Clear
5:15 AM 28.4 °F - 28.4 °F 100% 30.36 in 7.0 mi Calm Calm - N/A   Clear
5:35 AM 28.4 °F - 28.4 °F 100% 30.36 in 10.0 mi Calm Calm - N/A   Clear
5:55 AM 26.1 °F - 25.9 °F 99% 30.37 in 10.0 mi Calm Calm - N/A   Clear
6:15 AM 28.4 °F - 28.4 °F 100% 30.38 in 7.0 mi Calm Calm - N/A   Clear
6:34 AM 28.4 °F - 28.4 °F 100% 30.37 in 10.0 mi Calm Calm - N/A   Clear
6:55 AM 29.3 °F - 28.9 °F 99% 30.37 in 10.0 mi Calm Calm - N/A   Clear
7:15 AM 33.1 °F - 32.7 °F 99% 30.38 in 10.0 mi Calm Calm - N/A   Clear
7:34 AM 33.3 °F - 32.7 °F 98% 30.38 in 10.0 mi Calm Calm - N/A   Clear
7:55 AM 35.8 °F - 34.2 °F 94% 30.39 in 10.0 mi Calm Calm - N/A   Clear
8:15 AM 38.8 °F - 34.2 °F 83% 30.40 in 10.0 mi Calm Calm - N/A   Clear
8:35 AM 41.2 °F - 35.1 °F 79% 30.42 in 10.0 mi Calm Calm - N/A   Clear
8:55 AM 43.9 °F 42.3 °F 34.7 °F 70% 30.41 in 10.0 mi East 3.5 mph - N/A   Clear
9:15 AM 45.9 °F - 34.7 °F 65% 30.43 in 10.0 mi Calm Calm - N/A   Clear
9:35 AM 48.4 °F - 35.4 °F 61% 30.43 in 10.0 mi Calm Calm - N/A   Clear
9:55 AM 48.4 °F - 33.3 °F 56% 30.43 in 10.0 mi North 4.6 mph - N/A   Clear
10:15 AM 50.7 °F - 34.7 °F 54% 30.43 in 10.0 mi Calm Calm - N/A   Clear
10:35 AM 53.6 °F - 35.8 °F 51% 30.41 in 10.0 mi East 3.5 mph - N/A   Clear
10:55 AM 54.3 °F - 33.3 °F 45% 30.40 in 10.0 mi NNE 5.8 mph - N/A   Clear
11:14 AM 55.9 °F - 30.7 °F 38% 30.40 in 10.0 mi NNE 9.2 mph 16.1 mph N/A   Clear
11:35 AM 56.5 °F - 28.9 °F 35% 30.39 in 10.0 mi NNE 3.5 mph - N/A   Clear
11:55 AM 57.6 °F - 29.3 °F 34% 30.40 in 10.0 mi Calm Calm - N/A   Clear
12:14 PM 58.5 °F - 29.7 °F 33% 30.40 in 10.0 mi North 5.8 mph - N/A   Clear
12:35 PM 58.5 °F - 30.4 °F 34% 30.38 in 10.0 mi North 6.9 mph - N/A   Clear
12:55 PM 59.0 °F - 29.5 °F 33% 30.38 in 10.0 mi NNW 8.1 mph - N/A   Clear
1:14 PM 59.0 °F - 30.2 °F 34% 30.38 in 10.0 mi SE 3.5 mph - N/A   Clear
1:35 PM 59.7 °F - 29.3 °F 32% 30.37 in 10.0 mi East 5.8 mph - N/A   Clear
1:55 PM 60.6 °F - 28.8 °F 30% 30.37 in 10.0 mi NE 3.5 mph - N/A   Clear
2:14 PM 61.0 °F - 28.2 °F 29% 30.36 in 10.0 mi NE 8.1 mph - N/A   Clear
2:35 PM 61.2 °F - 29.5 °F 30% 30.36 in 10.0 mi North 10.4 mph - N/A   Clear
2:55 PM 61.9 °F - 30.2 °F 30% 30.35 in 10.0 mi East 3.5 mph - N/A   Clear
3:14 PM 62.1 °F - 29.7 °F 29% 30.36 in 10.0 mi NW 5.8 mph - N/A   Scattered Clouds
3:35 PM 63.5 °F - 28.6 °F 27% 30.35 in 10.0 mi NNW 8.1 mph - N/A   Scattered Clouds
3:55 PM 63.1 °F - 27.7 °F 26% 30.34 in 10.0 mi Calm Calm - N/A   Clear
4:14 PM 63.9 °F - 29.7 °F 28% 30.33 in 10.0 mi Calm Calm - N/A   Clear
4:35 PM 63.3 °F - 28.8 °F 27% 30.33 in 10.0 mi Calm Calm - N/A   Clear
4:55 PM 63.5 °F - 29.7 °F 28% 30.33 in 10.0 mi North 5.8 mph - N/A   Clear
5:14 PM 63.5 °F - 30.7 °F 29% 30.33 in 10.0 mi NNW 5.8 mph - N/A   Clear
5:35 PM 63.7 °F - 30.4 °F 29% 30.32 in 10.0 mi NE 8.1 mph - N/A   Scattered Clouds
5:55 PM 64.9 °F - 31.6 °F 29% 30.32 in 10.0 mi ENE 8.1 mph 17.3 mph N/A   Clear
6:15 PM 63.5 °F - 31.5 °F 30% 30.31 in 10.0 mi North 6.9 mph - N/A   Clear
6:35 PM 63.5 °F - 31.8 °F 31% 30.31 in 10.0 mi NE 8.1 mph - N/A   Clear
6:54 PM 62.1 °F - 30.2 °F 30% 30.32 in 10.0 mi NNE 9.2 mph - N/A   Clear
7:15 PM 61.5 °F - 29.5 °F 30% 30.32 in 10.0 mi NNE 5.8 mph - N/A   Clear
7:35 PM 61.0 °F - 28.6 °F 29% 30.32 in 10.0 mi NNE 10.4 mph - N/A   Clear
7:54 PM 60.4 °F - 28.0 °F 29% 30.31 in 10.0 mi North 9.2 mph - N/A   Clear
8:15 PM 59.0 °F - 26.6 °F 29% 30.31 in 10.0 mi North 8.1 mph - N/A   Clear
8:35 PM 58.5 °F - 27.7 °F 31% 30.31 in 10.0 mi North 5.8 mph - N/A   Clear
8:54 PM 55.9 °F - 27.7 °F 34% 30.31 in 10.0 mi North 5.8 mph - N/A   Clear
9:15 PM 53.6 °F - 28.8 °F 39% 30.31 in 10.0 mi North 3.5 mph - N/A   Clear
9:35 PM 48.6 °F - 31.5 °F 52% 30.31 in 10.0 mi Calm Calm - N/A   Clear
9:55 PM 48.4 °F - 34.3 °F 58% 30.32 in 10.0 mi Calm Calm - N/A   Clear
10:15 PM 44.8 °F - 32.7 °F 63% 30.33 in 10.0 mi Calm Calm - N/A   Clear
10:34 PM 42.1 °F - 32.4 °F 68% 30.33 in 10.0 mi Calm Calm - N/A   Clear
10:55 PM 40.1 °F - 33.6 °F 78% 30.33 in 10.0 mi Calm Calm - N/A   Clear
11:15 PM 39.7 °F - 31.8 °F 73% 30.34 in 10.0 mi Calm Calm - N/A   Clear
11:35 PM 38.3 °F - 31.8 °F 77% 30.34 in 10.0 mi Calm Calm - N/A   Clear
11:55 PM 38.3 °F - 33.3 °F 82% 30.34 in 10.0 mi Calm Calm - N/A   Clear